Regional Weather Roundup
Issued by NWS Cleveland, OH

Home | Current Version | Previous Version | Text Only | Print | Product List | Glossary Off
Versions: 1 2 3 4 5 6 7 8 9 10 11 12 13 14 15 16 17 18 19 20 21 22 23 24 25 26 27 28 29 30 31 32 33 34 35 36 37 38 39 40 41 42 43 44 45 46 47 48 49 50

000
ASUS41 KCLE 251012
RWRCLE
OHIO REGIONAL WEATHER ROUNDUP
NATIONAL WEATHER SERVICE WILMINGTON, OH
600 AM EDT SUN SEP 25 2016

NOTE: "FAIR" INDICATES FEW OR NO CLOUDS BELOW 12,000 FEET WITH NO
SIGNIFICANT WEATHER AND/OR OBSTRUCTIONS TO VISIBILITY.

OHZ001>008-015>018-024>027-034-035-043-044-251100-
   NORTHWEST OHIO

CITY           SKY/WX    TMP DP  RH WIND       PRES   REMARKS
DEFIANCE       FAIR      54  50  86 CALM      30.19R
FINDLAY        FAIR      54  46  74 E6        30.17S
TOLEDO EXPRESS FAIR      50  50 100 CALM      30.19S
TOLEDO EXEC    FAIR      53  48  83 SE3       30.20S
LIMA           FAIR      52  51  97 E5        30.17S
$$

OHZ009>014-019>023-028>033-038-089-251100-
   NORTHEAST OHIO

CITY           SKY/WX    TMP DP  RH WIND       PRES   REMARKS
CLE-HOPKINS    FAIR      55  42  61 E8        30.22F
CLE-LAKEFRONT  FAIR      58  43  57 E8        30.20S
CUY CO. ARPT   NOT AVBL
LORAIN-ELYRIA  FAIR      46  41  82 SE5       30.21S
ASHTABULA      FAIR      45  43  93 E3        30.23S
AKRON-CANTON   FAIR      49  45  86 NE7       30.19F
WOOSTER        FAIR      47  44  90 E5        30.20S
MANSFIELD      FAIR      50  47  89 E5        30.19S
YOUNGSTOWN     FAIR      46  43  89 E6        30.21S
$$

OHZ042-051>053-060>062-070>072-077>081-251100-
  SOUTHWEST OHIO

CITY           SKY/WX    TMP DP  RH WIND       PRES   REMARKS
CINC-COVINGTON FAIR      64  61  90 E6        30.13S
CINC-LUNKEN    FAIR      61  61 100 N3        30.14S
HAMILTON       FAIR      60  56  86 E3        30.15S
DAYTON         FAIR      58  53  84 E6        30.17R
WRIGHT-PAT AFB CLEAR     58  54  85 NE5       30.15S
DAYTON GENERAL FAIR      60  53  77 E8        30.14F
WILMINGTON     FAIR      57  54  89 E6        30.15S
$$

OHZ036-037-039>041-045>050-054>059-063>069-073>076-082>088-251100-
  CENTRAL AND SOUTHEAST OHIO

CITY           SKY/WX    TMP DP  RH WIND       PRES   REMARKS
COLUMBUS       FAIR      56  52  86 NE3       30.16S
OSU AIRPORT    FAIR      55  51  86 NE5       30.17R
BOLTON FIELD   FAIR      56  52  88 CALM      30.17S
RICKENBACK AFB FAIR      54  51  90 E5        30.16S
NEWARK         FAIR      54  50  86 CALM      30.17S
MARION         FAIR      49  46  90 NE3       30.18S
LANCASTER      FAIR      54  52  93 CALM      30.17R
ZANESVILLE     FAIR      52  50  93 N3        30.17S
NEW PHILLY     FAIR      49  47  93 CALM      30.20R
$$



USA.gov is the U.S. government's official web portal to all federal, state and local government web resources and services.